www.pogodaiklimat.ru

Погода и климат >> Архив погоды >> Канада >> Arviat Airport


ПОГОДА в Arviat Airport

  • Прогноз погоды в Arviat Airport
  • Монитор погоды в Arviat Airport
  • Климат города

АРХИВ ПОГОДЫ в Arviat Airport

Время (UTC), дата Ветер
(напр.,м/с)
 
Видим.   Явления Облачность Т
(С)
Тd
(С)
f
(%)
Тe
(С)
Тes
(С)
Комфортность P
(гПа)
Po
(гПа)
Тmin
(С)
Tmax
(С)
R
(мм)
R24
(мм)
S
(см)
03 18.06 Ю 2 16 км н/о +6.9 +5.2 89 +5 +5 1010.2 1008.9
06 18.06 З 4 16 км 5/0
[]
+11.1 +9.9 92 +9 +9 1010.0 1008.7 9
09 18.06 З 5 16 км 9/0
[]
+10.7 +8.8 88 +8 +8 1009.8 1008.5
12 18.06 З 6 16 км ясно +13.2 +9.5 78 +11 +12 1009.9 1008.6
15 18.06 В 3 16 км ясно +16.1 +10.6 70 +16 +23 1009.2 1007.9
18 18.06 С 9 16 км н/о +5.9 +4.3 89 -0 -0 1009.9 1008.6
21 18.06 СВ 9 16 км н/о +5.7 +3.4 85 -0 -0 1012.7 1011.4
00 19.06 0 16 км н/о +6.5 +4.3 86 1014.0 1012.7
03 19.06 С 5 16 км 10/10 1000 м
[]
+8.3 +4.3 76 +5 +5 1015.6 1014.3
06 19.06 СЗ 2 16 км ясно +5.7 +3.4 85 +3 +3 1016.3 1015.0 191
09 19.06 З 4 16 км ясно +3.8 +2.5 91 -1 -1 1016.9 1015.6
12 19.06 0 16 км ясно +5.5 +2.8 83 1017.7 1016.4 +3.7
15 19.06 0 16 км н/о +8.6 +2.7 66 1018.6 1017.3
18 19.06 СЗ 4 16 км ясно +11.7 +2.8 54 +10 +19 1018.7 1017.4 +3.7 +11.7
21 19.06 Ю 7 16 км ясно +9.0 +4.0 71 +5 +8 1018.1 1016.8
00 20.06 Ю 7 16 км ясно +9.2 +4.9 74 +5 +6 1017.2 1015.9 +3.7 +12.1
03 20.06 Ю 8 16 км н/о +6.2 +3.4 82 +1 +1 1016.4 1015.1
06 20.06 ЮЗ 7 16 км н/о +4.9 +3.4 90 -1 -1 1015.4 1014.1
09 20.06 ЮЗ 5 16 км н/о +6.3 +5.4 94 +2 +2 1013.8 1012.5
12 20.06 0 16 км н/о +7.2 +6.1 93 1012.2 1010.9
15 20.06 Ю 7 16 км 9/0 2000 м
[]
+8.2 +6.3 88 +4 +5 1010.3 1009.0
18 20.06 Ю 8 16 км 10/0
[]
+12.1 +8.5 79 +9 +10 1008.3 1007.0
21 20.06 Ю 8 16 км 9/0
[]
+14.7 +10.5 76 +13 +14 1007.0 1005.7
00 21.06 СЗ 7 16 км 5/0
[]
+25.9 +11.8 41 +27 +28 жарко 1005.2 1003.9
03 21.06 С 6 16 км 9/0 2000 м
[]
+16.5 +12.5 77 +15 +15 1006.8 1005.5
06 21.06 С 8 16 км 10/0
[]
+11.5 +9.3 86 +8 +8 1009.3 1008.0 201
09 21.06 С 8 16 км ясно +6.9 +4.5 85 +2 +2 1011.8 1010.5
12 21.06 0 н/о 1013.6 1012.3
15 21.06 С 8 16 км ясно +10.1 +3.0 61 +6 +8 1014.6 1013.3
18 21.06 СЗ 8 16 км ясно +12.7 +2.7 51 +10 +12 1014.5 1013.2
21 21.06 СЗ 8 16 км ясно +14.2 +3.6 49 +12 +14 1014.6 1013.3
00 22.06 С 7 16 км ясно +13.0 +4.2 55 +11 +11 1014.7 1013.4
03 22.06 С 6 16 км ясно +9.1 +3.2 67 +6 +6 1015.4 1014.1
06 22.06 СЗ 3 16 км ясно +5.8 +3.5 85 +3 +3 1016.3 1015.0 71
09 22.06 СЗ 4 16 км н/о +3.8 +1.7 86 -0 -0 1016.6 1015.3
12 22.06 СЗ 5 16 км н/о +6.6 +3.4 80 +2 +2 1016.4 1015.1
15 22.06 С 8 16 км н/о +9.6 +2.0 59 +6 +6 1016.5 1015.2
18 22.06 С 8 16 км ясно +12.4 +2.7 52 +10 +13 1015.7 1014.4
21 22.06 С 5 16 км 9/9 1500 м
[]
+15.1 +3.4 45 +14 +14 1015.3 1014.0
00 23.06 Ю 7 16 км 9/9 1500 м
[]
+10.2 +4.9 70 +7 +7 1014.9 1013.6
03 23.06 Ю 4 16 км 10/10 1500 м
[]
+8.5 +5.8 83 +5 +5 1015.1 1013.8
06 23.06 Ю 5 16 км 10/10 1500 м
[]
+7.1 +4.2 82 +3 +3 1015.0 1013.7 201
09 23.06 В 1 16 км 10/10 1500 м
[]
+6.4 +5.2 92 +6 +6 1015.7 1014.4
12 23.06 СВ 5 16 км {осадки} ясно +5.7 +2.7 81 +2 +3 1017.0 1015.7 +3.9 0.3
15 23.06 СВ 5 16 км ясно +7.1 +3.3 77 +3 +9 1018.5 1017.2
18 23.06 В 6 16 км ясно +8.6 +3.5 70 +5 +10 1019.0 1017.7 +3.9 +9.2
21 23.06 В 6 16 км ясно +8.2 +2.9 69 +4 +9 1019.5 1018.2
00 24.06 ЮВ 6 16 км ясно +7.6 +3.0 73 +3 +5 1019.4 1018.1 +3.9 +9.2
03 24.06 Ю 6 16 км ясно +5.6 +3.1 84 +1 +1 1019.4 1018.1
06 24.06 Ю 6 16 км 9/9 1500 м
[]
+6.2 +3.7 84 +1 +1 1019.8 1018.5 +3.9 +9.2 2
09 24.06 Ю 7 16 км 9/0 2000 м
[]
+5.3 +3.2 86 0 0 1019.3 1018.0
12 24.06 Ю 8 16 км 3/0
[]
+6.2 +3.5 83 +1 +1 1018.3 1017.0 +5.3 +9.2
15 24.06 Ю 10 16 км ясно +7.6 +4.2 79 +2 +2 1016.6 1015.3
18 24.06 Ю 10 16 км 9/0
[]
+7.8 +4.5 80 +3 +3 1014.6 1013.3 +5.3 +7.9
21 24.06 Ю 8 16 км ясно +7.2 +5.0 86 +2 +4 1011.7 1010.4

 

Местоположение метеостанции Arviat Airport (Канада): широта 61.09 долгота -94.07 высота над уровнем моря 10 м.

В архиве по умолчанию представлена погода в Arviat Airport за последнюю неделю. Архивные данные за месяц целиком и за предыдущие месяцы, начиная с января 2011 года, Вы можете получить, выбрав интересующий диапазон дат из раскрывающегося списка и нажав кнопку "Ввод!".


*Определитесь, кто Вы:
робот инопланетянин человек

Внимание! Время в таблицах - всемирное. Для получения местного времени необходимо прибавить поправку, которая в Arviat Airport равна -5 ч.

Смотрите также архив погоды в соседних городах и на ближайших метеорологических станциях:

Погода в Arviat Climate (Канада) (1 км)
Погода в Arviat (Канада) (1 км)
Погода в Rankin Inlet (Канада) (218 км)
Погода в Churchill Climate (Канада) (264 км)
Погода в Tadoule Lake (Канада) (361 км)
Погода в Baker Lake Airport (Канада) (371 км)
Погода в Baker Lake Climate (Канада) (372 км)
Погода в Dubawnt Lake (Канада) (462 км)
Погода в Gillam (Канада) (528 км)
Погода в Back River MAPS (Канада) (568 км)

Пояснения к столбцам:

Ветер - указаны скорость ветра в м/с - средняя за 10 мин, порывы в срок и между сроками (в фигурных скобках) и направление, откуда дует ветер: С - северный, СВ - северо-восточный, В - восточный, ЮВ - юго-восточный, Ю - южный, ЮЗ - юго-западный, З - западный, СЗ - северо-западный.
Видимость - горизонтальная дальность видимости в метрах или километрах. При видимости от 1 до 10 км при отсутствии осадков обычно наблюдается дымка, при ухудшении видимости до 1 км и менее - туман. В сухую погоду видимость может ухудшаться дымом, пылью или мглою.
Явления - указаны атмосферные явления, наблюдавшиеся в срок или в последний час перед сроком; фигурными скобками обозначены явления, наблюдавшиеся между сроками (за 1-3 часа до срока); квадратными скобками обозначены град или гололедные отложения с указанием их диаметра в мм.
Облачность - указаны через наклонную черту общая и нижняя облачность в баллах и высота нижней границы облаков в метрах; квадратными скобками обозначены формы облаков: Ci - перистые, Cs - перисто-слоистые, Cc - перисто-кучевые, Ac - высококучевые, As - высокослоистые, Sc - слоисто-кучевые, Ns - слоисто-дождевые, Cu - кучевые, Cb - кучево-дождевые. Подробнее классификацию облаков см. в Атласе облаков (PDF).
T - Температура воздуха - температура, измеренная на высоте 2 м над землей.
Td - Температура точки росы - температура, при понижении до которой содержащийся в воздухе водяной пар достигнет насыщения.
f - Относительная влажность воздуха - влажноcть воздуха, измеренная на высоте 2 м над землей.
Te - Эффективная температура - температура, которую ощущает одетый по сезону человек в тени. Характеристика душности погоды. При расчете учитывается влияние влажности воздуха и скорости ветра на теплоощущения человека.
Tes - Эффективная температура на солнце - температура, которую ощущает человек, с поправкой на солнечный нагрев. Характеристика знойности погоды. Зависит от высоты солнца над горизонтом, облачности и скорости ветра. Ночью, в пасмурную погоду, а также при ветре 12 м/с и более поправка равна нулю.
P - Атмосферное давление - приведенное к уровню моря атмосферное давление.
Po - Атмосферное давление - измеренное на уровне метеостанции атмосферное давление.
Tmin - Минимальная температура - минимум температуры воздуха на высоте 2 м над землей.
Tmax - Максимальная температура - максимум температуры воздуха на высоте 2 м над землей.
R - Количество осадков - Количество выпавших осадков за период времени, мм. При наведении курсора мыши на число - период времени, за который выпало указанное количество осадков.
R24 - Количество осадков - Количество выпавших осадков за 24 часа, мм.
S - Снежный покров - Высота снежного покрова, см. При наведении курсора мыши на число - состояние снежного покрова и степень покрытия местности в баллах.